ORBCOMM FM31 [+]

Last updated on Sat May 13 2023 01:03:01 GMT+0100 (British Summer Time)

1 25981U 99065B 23131.96110785 .00001768 00000+0 67668-3 0 9998 2 25981 45.0229 104.5621 0002140 202.0178 158.0577 14.34075183223764
UTC large
Height (km)
Speed (km/s)
/
Latitude / Longitude
Inclination (degrees)
Orbital Period (minutes)
Azimuth
Elevation
Range (km)
Doppler Factor

Next 0 passes for location: London (51.5072 / 0.1276)

Sorry there are no passes over London.